GFSNW_prec_cthk_252.txt.gz
RH
35 30 27 21 15 15 18 22 25 27 25 24 25 27 27 26 27 29 32 35 37 40 42 45 44 43 46 48 49 49 50 52 56 52 56 57 56 56 58 68 65 63 69 50
33 30 26 19 15 13 16 22 25 27 26 29 29 30 29 29 29 30 33 36 39 40 45 48 47 48 48 51 52 54 56 58 64 59 57 57 61 65 68 69 71 69 67 47
37 30 26 29 25 15 15 19 24 29 29 29 30 32 32 33 33 32 35 38 40 42 47 48 51 51 52 53 54 55 58 60 66 69 69 70 72 72 70 70 76 65 56 46
42 38 31 30 29 18 16 19 21 26 33 33 34 35 34 36 36 36 36 39 42 44 49 52 54 55 56 56 59 61 63 67 67 66 68 71 70 72 72 73 67 72 50 51
47 42 35 33 29 27 21 19 21 24 26 30 35 38 37 38 39 40 41 42 45 48 53 54 57 59 59 59 63 66 67 72 70 74 70 72 71 67 66 65 65 63 55 52
48 50 43 37 32 29 27 21 22 25 28 29 32 35 38 40 42 44 46 48 49 51 54 56 57 59 60 61 65 69 71 74 79 76 71 72 68 52 58 59 56 54 53 51
46 52 50 43 38 34 29 27 23 26 26 28 29 33 38 41 44 48 48 47 49 52 56 59 63 65 65 66 69 70 73 76 84 82 76 78 56 56 56 55 53 54 55 59
42 45 49 48 43 40 34 33 33 27 27 27 29 32 36 40 45 49 52 54 55 58 61 66 73 70 63 63 64 71 73 80 87 84 76 63 58 57 59 57 53 54 61 63
47 45 50 52 50 47 46 38 36 37 32 31 31 38 41 44 49 52 53 59 62 65 68 78 78 76 71 73 70 71 75 78 90 85 88 71 58 62 62 59 58 60 65 68
63 61 56 56 59 61 59 55 51 52 47 43 47 50 49 50 52 55 56 60 65 70 74 76 78 80 76 81 76 79 83 87 87 87 88 71 67 65 63 68 63 68 72 77
81 71 72 65 62 62 62 60 64 65 61 53 52 49 47 53 54 55 62 67 70 75 79 82 80 83 82 82 76 76 78 84 84 86 91 83 66 73 75 71 76 79 78 77
95 86 81 82 75 70 73 73 72 76 74 66 57 58 60 61 60 62 66 67 69 75 78 81 84 85 84 84 85 80 82 77 80 81 77 75 75 77 76 77 80 77 75 73
99 98 99 96 86 84 80 83 80 84 84 81 77 72 71 69 68 68 68 70 72 80 80 84 87 88 87 88 85 81 81 82 82 83 78 81 80 79 79 79 76 73 73 70
98 98 99 99 99 99 99 93 89 91 88 86 82 78 72 70 72 69 71 74 81 84 86 86 87 90 91 90 87 84 83 84 84 86 84 84 85 82 80 76 74 73 71 71
98 98 98 99 99 99 99 99 99 99 98 92 88 88 86 81 78 80 81 82 85 86 91 92 93 93 97 95 92 86 84 82 86 85 83 83 81 78 76 74 71 72 71 72
98 98 98 98 98 99 99 99 98 98 99 98 97 92 93 94 94 93 93 92 92 93 94 96 97 97 98 94 84 77 82 83 81 81 79 78 76 72 71 72 71 72 71 66
98 98 98 98 99 98 99 97 95 99 99 98 98 97 92 93 94 96 98 98 98 98 97 97 97 98 98 94 87 82 79 77 77 78 77 72 70 71 71 73 74 68 64 64
97 97 98 97 98 98 98 98 98 98 97 99 98 95 93 92 96 97 97 98 97 96 97 96 94 95 97 90 80 76 74 73 72 70 67 68 70 72 75 73 66 65 64 61
98 97 97 97 98 98 98 98 97 97 99 98 96 93 93 93 94 98 97 97 96 95 92 92 90 87 88 77 74 72 70 70 69 70 71 73 75 77 73 67 65 64 61 53
99 97 95 96 97 98 98 98 98 98 98 97 97 96 96 96 98 98 97 96 96 92 85 88 85 79 76 74 73 71 70 70 71 73 76 78 79 73 68 65 64 61 47 46
97 97 95 97 98 97 98 98 98 97 97 96 96 95 96 97 97 97 97 96 94 89 82 87 80 73 70 71 70 72 72 72 75 78 82 77 72 69 65 62 51 45 46 45
98 98 95 97 97 96 97 97 97 97 97 97 98 97 97 97 97 97 97 96 96 94 84 85 76 69 72 71 72 73 75 79 81 79 75 71 68 64 56 44 46 48 46 42
99 98 96 90 93 93 92 95 96 97 97 97 97 97 96 97 97 97 96 97 96 92 89 80 71 73 72 70 73 77 80 80 77 73 71 68 65 50 44 46 47 47 44 45
98 98 96 91 91 92 91 89 91 94 94 93 92 95 96 96 96 96 96 96 93 91 86 74 70 72 73 77 80 82 81 76 76 75 71 62 48 46 47 49 48 47 45 49
98 97 97 93 91 88 87 87 88 89 90 91 94 94 95 96 97 96 96 97 89 79 72 72 72 74 78 81 82 82 80 82 78 74 60 52 50 49 48 49 49 48 50 53
98 96 96 94 92 93 89 85 84 84 89 94 96 95 96 97 97 92 90 87 78 74 78 77 78 81 82 84 86 87 85 82 73 58 54 54 51 51 51 49 50 53 56 56
97 93 95 92 90 87 83 81 80 80 81 87 96 97 97 97 97 92 87 84 79 81 81 87 88 88 93 92 88 86 82 72 61 58 57 56 53 54 52 52 54 59 58 57

GFSNW_prec_cthk_255.txt.gz
RH
39 49 44 30 22 26 24 23 26 26 28 30 28 26 25 25 25 26 28 30 32 35 38 39 39 38 42 43 45 46 46 50 50 47 48 49 51 51 52 62 68 68 73 59
37 42 34 37 28 19 20 22 24 25 28 32 30 29 28 29 27 27 29 31 34 36 38 42 41 42 43 46 48 50 50 52 57 53 52 52 53 56 60 68 72 77 79 58
37 38 30 31 36 31 28 24 26 27 27 29 30 32 33 34 32 31 32 34 36 38 40 41 45 45 47 49 50 51 52 54 61 63 60 61 63 66 68 71 77 71 63 56
42 42 36 31 33 32 26 23 21 25 32 29 29 33 34 36 37 36 35 36 37 40 43 45 47 48 49 51 54 54 55 58 60 59 61 62 62 64 68 72 71 77 57 60
45 44 45 38 40 33 27 32 28 28 23 27 29 33 35 36 38 38 37 37 39 42 46 46 49 49 49 52 56 58 59 65 66 68 62 62 62 60 64 64 64 65 63 60
56 47 47 46 44 42 36 28 30 31 26 26 29 30 30 32 36 39 41 42 44 46 48 48 49 50 51 56 60 63 62 69 75 72 63 66 64 53 54 58 57 57 57 51
66 54 48 52 49 47 40 33 31 33 34 31 29 28 29 30 33 36 39 43 45 47 50 52 53 53 57 58 58 60 64 72 79 78 72 75 54 53 54 53 54 53 53 54
65 67 52 50 55 52 49 42 37 36 35 28 29 30 32 36 35 36 40 42 46 49 51 57 63 64 61 59 61 65 68 77 85 84 73 59 54 55 55 56 52 54 54 58
67 70 63 50 52 52 52 46 43 41 37 33 32 36 33 34 36 39 42 45 48 53 58 64 69 70 62 62 62 62 70 76 86 86 87 72 56 59 59 60 56 56 61 67
85 71 67 52 50 50 50 50 47 47 45 36 35 37 37 40 42 47 50 53 56 57 59 68 69 71 67 74 69 72 77 79 86 85 88 70 63 64 65 67 64 66 70 76
98 84 72 61 47 51 54 52 56 55 50 44 44 48 52 54 54 53 55 59 64 62 66 68 69 70 70 73 66 68 73 84 83 85 92 86 68 68 73 73 73 74 78 80
98 99 98 79 56 56 58 60 64 68 65 60 57 58 58 56 54 60 63 65 66 66 70 72 73 74 75 73 76 68 75 75 76 77 77 75 72 70 77 78 79 79 80 77
98 98 99 97 81 74 68 65 67 73 73 75 73 68 63 63 65 72 77 77 76 74 71 75 75 77 77 76 76 73 76 80 79 82 77 79 78 76 79 80 79 77 75 71
98 98 99 99 99 95 99 85 78 85 83 81 72 73 75 75 80 81 82 83 81 82 80 80 83 83 83 83 84 81 80 82 85 84 79 80 81 79 79 77 74 73 70 69
97 98 98 98 98 99 99 98 99 99 98 91 83 85 82 81 86 85 92 90 94 95 95 92 91 90 92 92 92 86 84 84 86 81 80 80 77 77 76 75 72 68 69 69
97 98 98 98 99 99 99 98 99 99 99 99 98 95 93 93 94 95 98 100 99 99 98 98 97 97 99 97 90 80 82 84 83 80 80 77 76 75 72 68 69 69 70 66
96 98 98 97 98 99 99 98 96 99 99 98 98 97 92 93 96 97 97 99 98 97 98 97 97 98 99 95 85 83 84 82 81 77 74 73 71 70 68 70 70 70 65 64
97 97 98 98 98 98 98 98 98 98 99 99 98 96 93 92 94 96 96 98 98 97 96 94 95 97 97 91 84 84 82 78 75 72 70 68 67 69 69 72 70 66 65 62
98 93 95 98 98 98 98 98 98 98 99 98 98 96 94 95 96 97 97 98 97 96 95 96 96 94 91 87 85 82 78 74 71 70 69 68 70 71 72 70 68 67 63 52
98 96 94 95 97 98 98 98 98 98 98 98 97 97 96 96 98 98 97 97 97 95 91 93 92 83 84 83 81 79 77 73 71 70 72 73 73 74 71 69 67 62 47 40
98 97 96 96 98 98 98 98 98 98 97 96 96 97 96 97 97 97 97 97 96 95 87 88 83 76 77 78 78 77 74 72 72 73 73 76 76 71 69 67 60 46 41 39
98 98 97 98 98 97 97 97 97 97 97 97 97 97 97 97 97 97 97 96 96 95 87 88 82 76 76 74 73 72 72 73 74 77 78 73 71 69 66 56 47 45 42 42
99 98 98 96 96 98 97 95 95 96 96 97 98 97 97 97 97 97 96 96 96 92 91 85 76 76 75 73 71 73 75 78 78 77 76 72 72 67 56 50 49 46 43 44
98 98 97 97 94 94 96 96 96 97 97 97 96 97 96 97 97 97 95 96 95 94 88 79 77 76 75 75 77 80 81 80 79 78 76 75 67 56 52 51 49 44 46 48
98 98 98 95 94 96 95 95 97 98 96 94 95 96 96 97 96 96 97 96 94 84 78 76 74 76 79 81 83 82 80 81 82 80 79 70 61 57 54 51 47 47 50 47
98 97 96 95 94 95 92 91 91 90 92 94 95 96 96 96 95 92 95 96 87 81 80 79 79 82 84 87 86 85 85 85 83 78 70 65 63 60 57 53 49 50 50 50
98 96 97 95 93 91 88 85 85 86 87 85 84 90 92 94 94 93 91 89 87 87 86 86 86 89 93 94 95 90 86 84 77 71 69 68 66 64 60 54 54 54 52 55

GFSNW_prec_cthk_258.txt.gz
RH
48 51 49 43 47 50 38 33 31 26 26 31 33 35 30 25 25 26 27 27 28 30 33 35 35 35 38 38 42 44 45 46 51 43 43 43 45 49 49 61 62 68 74 64
49 48 48 41 38 44 42 38 34 26 27 35 35 34 33 32 30 29 30 30 29 31 34 37 36 37 39 42 44 46 48 49 57 51 46 47 49 50 54 57 63 73 83 64
58 48 47 40 33 47 51 40 35 35 35 31 34 33 33 35 34 33 33 33 33 34 36 37 39 40 42 44 45 46 48 51 54 57 52 55 57 56 57 63 74 71 63 58
63 58 49 45 37 38 42 45 38 32 37 27 24 29 32 36 38 37 37 37 36 38 41 40 42 42 45 46 48 47 49 55 56 53 54 56 58 60 63 69 68 77 58 64
64 67 58 50 45 40 36 38 39 39 35 39 32 31 32 32 37 37 38 39 40 41 42 42 45 45 46 46 48 51 52 60 62 60 57 61 60 56 60 64 66 66 63 61
70 68 69 53 52 45 41 35 34 38 41 32 33 30 27 28 33 36 35 38 41 43 46 45 49 49 48 49 51 56 58 63 68 67 57 60 61 50 55 59 61 62 69 61
83 73 68 70 56 51 42 42 37 42 39 36 32 34 34 32 29 32 33 35 38 41 44 45 48 49 50 52 54 55 59 66 72 73 66 73 51 48 52 55 57 63 61 60
99 84 69 74 66 58 54 51 47 48 48 37 33 37 39 36 35 33 33 34 37 39 44 50 55 57 54 52 55 58 58 66 75 79 73 58 53 53 57 57 56 60 61 60
98 99 80 70 75 68 62 57 53 51 55 46 36 38 37 38 40 42 40 39 41 44 49 55 63 61 56 56 54 51 60 65 78 79 82 75 51 57 58 58 65 61 63 65
97 98 98 81 72 78 65 61 56 58 58 49 45 45 41 39 41 46 45 47 48 49 55 63 65 66 63 67 61 62 62 74 75 80 83 70 59 62 63 69 71 69 73 75
97 96 98 99 83 76 77 64 60 58 56 52 49 47 47 44 43 45 44 52 59 62 66 66 66 69 66 69 61 60 66 75 79 80 84 79 66 70 76 75 75 78 77 77
97 96 96 98 99 82 83 64 65 59 59 51 47 47 51 48 45 50 57 59 59 61 68 69 73 75 77 73 76 63 69 69 76 75 75 75 75 76 79 80 79 82 78 74
97 96 96 97 98 99 91 70 64 63 64 59 52 50 48 59 61 62 63 65 60 65 66 75 85 88 83 83 78 68 70 76 80 81 80 82 82 80 81 82 83 79 74 71
97 96 97 98 98 99 99 91 61 62 67 68 59 57 56 63 66 69 70 70 70 73 80 85 86 87 86 84 88 85 86 89 90 88 88 87 84 83 84 83 80 76 71 65
98 97 97 98 98 98 99 99 92 80 79 73 68 64 65 71 74 77 78 80 81 86 91 92 91 91 98 94 94 89 87 89 96 97 89 86 84 84 83 81 77 70 64 64
97 96 95 97 97 98 99 98 99 99 97 96 94 92 87 89 93 93 94 92 93 98 96 96 95 97 99 97 91 82 87 89 91 91 88 87 86 82 79 75 69 64 65 66
95 95 95 96 97 98 99 98 97 98 99 99 98 98 95 98 99 99 99 99 99 99 99 98 98 98 99 96 91 85 88 89 90 88 86 86 81 77 74 69 65 67 66 60
96 98 98 97 98 98 98 98 98 99 99 98 98 96 95 96 96 98 98 98 98 98 98 97 98 99 98 94 86 87 88 90 89 85 82 77 74 72 68 68 70 66 62 62
96 97 97 97 97 98 98 98 98 98 99 98 98 97 96 97 97 99 98 98 98 97 97 98 97 96 96 90 90 91 89 85 83 80 77 74 71 69 70 71 67 64 63 59
98 97 98 97 97 98 98 98 98 98 98 98 97 97 96 96 97 97 98 97 97 97 96 97 96 93 90 91 91 87 84 83 80 79 76 71 71 71 72 68 65 64 57 51
97 98 97 98 99 98 98 98 98 98 98 97 97 97 96 96 97 97 98 97 97 97 95 97 94 88 85 85 86 84 83 80 79 74 69 70 73 72 69 66 65 58 53 50
98 98 98 98 98 98 98 97 97 97 97 96 96 96 97 97 97 97 97 97 97 96 91 94 90 83 82 81 82 80 77 74 71 70 72 74 71 69 69 64 59 55 51 48
99 98 98 97 97 98 98 97 97 97 97 97 97 97 97 97 97 97 97 97 96 92 94 91 85 83 81 79 76 74 73 72 73 74 73 71 73 73 67 63 58 56 53 50
98 98 98 98 97 97 97 97 97 98 97 97 97 97 97 97 97 97 96 97 96 96 96 89 88 84 81 78 77 76 76 77 76 73 74 76 75 69 66 62 62 59 55 53
98 98 98 96 93 95 97 98 98 98 98 98 97 97 97 97 97 96 97 97 97 95 92 89 82 80 80 81 82 83 82 79 77 79 80 78 73 68 66 65 63 59 57 56
98 97 96 96 96 97 96 97 97 97 97 95 92 94 95 96 95 94 96 95 95 92 87 83 83 82 84 88 88 87 83 80 83 84 82 75 71 70 66 64 61 57 55 52
98 98 98 98 97 95 92 89 90 92 92 89 85 84 89 88 88 89 87 89 89 86 86 88 90 91 88 90 91 90 91 92 92 86 78 73 72 69 64 60 57 57 56 56

GFSNW_prec_cthk_261.txt.gz
RH
68 69 72 68 61 56 52 50 52 45 44 43 46 41 37 34 32 29 28 29 29 31 32 32 32 32 33 33 36 39 42 45 49 45 42 41 41 43 45 57 53 63 69 55
65 63 65 63 60 54 58 54 52 55 51 54 44 34 33 34 33 33 34 36 33 31 33 36 34 33 33 35 38 42 42 46 53 49 45 44 45 45 48 51 56 63 72 59
94 68 64 66 57 53 50 51 51 59 58 48 46 40 37 34 32 34 37 39 36 36 37 36 38 38 37 38 41 42 43 47 47 48 49 53 52 50 50 54 66 68 60 58
98 94 65 71 66 58 49 44 43 50 62 48 42 40 38 34 32 34 40 41 39 39 43 43 43 42 43 43 45 46 48 52 50 50 53 54 54 57 61 60 60 70 54 63
97 98 94 73 73 66 57 42 41 43 47 60 46 37 35 35 37 36 34 38 39 42 45 42 44 42 46 47 50 51 50 56 58 56 54 57 58 53 55 61 63 64 62 62
94 98 98 83 77 73 62 51 42 46 38 45 51 43 31 29 29 31 34 36 40 43 44 45 44 46 46 47 49 51 53 58 63 63 53 58 56 45 49 55 58 59 68 60
94 98 98 98 89 77 74 55 50 43 38 40 40 43 41 36 37 40 35 38 41 38 42 44 46 49 52 52 49 49 54 59 66 69 64 69 44 38 44 52 54 58 59 61
90 96 98 99 97 83 81 72 57 51 48 39 35 35 38 45 44 38 37 38 38 41 42 48 55 57 55 51 49 50 53 59 68 72 70 58 47 45 48 51 50 54 60 67
81 96 97 98 98 98 75 79 71 60 56 43 37 36 37 44 46 43 42 43 44 45 49 55 62 59 54 57 53 50 54 60 68 73 75 72 50 47 51 53 59 57 62 70
64 90 96 97 98 99 91 82 80 72 61 47 46 44 42 42 45 47 44 45 51 54 57 61 62 61 55 58 57 57 62 68 72 75 78 67 53 52 56 64 63 65 71 77
62 80 92 98 98 98 99 87 81 82 69 51 49 46 50 50 48 49 49 54 57 56 59 62 63 66 64 65 59 58 62 73 77 81 85 76 55 60 69 72 74 76 79 80
67 72 86 98 97 98 98 98 88 83 87 64 53 50 50 51 56 53 53 52 52 51 57 59 63 70 70 66 73 63 73 73 77 76 73 71 71 77 79 79 80 80 82 83
76 70 84 92 97 97 98 98 97 90 85 82 67 54 51 52 58 59 60 59 59 55 56 66 72 73 72 74 71 68 70 76 79 80 80 84 83 86 86 86 84 86 85 80
85 77 80 95 97 96 97 98 98 99 89 86 71 62 57 53 52 56 59 61 61 63 75 78 75 76 74 73 73 74 77 82 93 92 91 89 88 89 88 88 88 86 83 78
80 70 76 92 97 98 98 98 97 98 98 90 82 65 60 58 54 54 61 67 73 76 82 84 81 80 81 81 84 81 78 88 95 94 94 96 95 91 88 89 88 84 77 69
77 75 80 88 97 98 98 97 96 97 99 98 97 83 64 60 66 64 61 68 74 78 82 88 84 80 88 94 91 83 85 89 91 95 95 96 92 89 90 88 84 76 68 64
80 78 82 88 98 98 98 95 95 98 99 98 99 97 85 68 75 78 78 77 82 88 88 93 95 94 99 98 96 90 90 91 92 95 95 93 90 89 87 81 74 68 65 63
80 88 87 91 97 96 96 95 97 98 99 99 98 96 93 93 93 96 97 98 98 98 98 98 98 98 98 97 96 94 94 97 97 96 93 90 87 84 80 74 68 66 62 58
79 87 83 87 91 97 97 98 98 98 99 98 97 96 95 96 95 99 98 98 98 97 98 98 98 97 97 97 97 95 97 97 97 94 90 88 84 80 75 70 68 63 60 58
97 99 98 90 95 98 98 98 98 98 98 98 97 97 97 97 98 98 98 98 98 97 96 97 97 96 96 97 97 97 97 96 94 91 89 86 82 76 73 70 64 62 60 55
99 99 98 98 97 98 99 98 98 98 97 96 96 97 97 97 97 98 98 97 97 97 95 98 96 95 95 97 97 97 96 94 91 89 85 79 75 74 70 66 65 62 59 55
98 98 98 98 98 98 98 98 98 97 97 95 96 97 97 97 97 97 97 97 97 96 95 97 96 94 96 97 94 92 90 88 87 83 79 77 75 70 67 68 64 61 59 56
99 98 98 98 98 98 97 97 97 96 95 95 95 96 97 97 97 97 97 97 97 96 96 96 96 96 96 92 89 86 84 81 79 78 77 75 70 70 71 66 66 62 61 60
98 98 98 98 98 97 97 97 97 97 97 97 97 97 97 97 97 97 97 97 97 97 96 96 97 96 91 88 86 82 80 80 80 80 76 73 74 73 69 69 64 65 65 65
98 98 97 97 98 97 97 97 97 98 98 98 97 97 97 97 97 97 97 97 97 97 97 96 90 88 86 85 85 86 85 84 81 78 76 77 75 75 72 69 70 70 69 63
98 96 98 98 98 97 97 98 97 97 97 97 95 97 96 97 97 97 97 96 97 96 94 90 89 88 88 88 91 89 88 86 83 80 81 80 78 77 73 74 73 72 68 65
98 98 98 98 97 98 98 98 98 97 94 92 88 88 94 91 91 93 92 92 89 85 84 82 81 82 82 83 85 87 86 85 87 92 89 82 82 83 82 77 74 72 71 70